Time,TemperatureF,DewpointF,PressureIn,WindDirection,WindDirectionDegrees,WindSpeedMPH,WindSpeedGustMPH,Humidity,HourlyPrecipIn,Conditions,Clouds,dailyrainin,SoftwareType,DateUTC
2013-02-25 00:00:00,28.9,28.3,30.14,ENE,58,0.0,0.0,98,0.00,,,0.00,VWS V13.01,2013-02-25 06:00:00,
2013-02-25 00:01:00,37.1,34.7,29.97,ENE,59,14.8,18.1,91,0.00,,,0.00,VWS V13.01,2013-02-25 06:01:00,
2013-02-25 00:02:00,37.4,35.0,29.97,East,86,11.4,16.4,91,0.00,,,0.00,VWS V13.01,2013-02-25 06:02:00,
2013-02-25 00:03:00,37.1,34.7,29.97,NE,56,14.9,16.8,91,0.00,,,0.00,VWS V13.01,2013-02-25 06:03:00,
2013-02-25 00:04:00,37.1,34.7,29.97,ENE,73,15.8,17.6,91,0.00,,,0.00,VWS V13.01,2013-02-25 06:04:00,
2013-02-25 00:05:00,28.1,27.5,30.14,ENE,58,0.0,0.0,98,0.00,,,0.00,VWS V13.01,2013-02-25 06:05:00,
2013-02-25 00:06:00,37.1,34.7,29.97,ENE,69,13.9,17.0,91,0.00,,,0.00,VWS V13.01,2013-02-25 06:06:00,
2013-02-25 00:07:00,37.1,34.7,29.97,NE,55,12.6,15.4,91,0.00,,,0.00,VWS V13.01,2013-02-25 06:07:00,
2013-02-25 00:08:00,37.3,34.9,29.97,ENE,58,11.5,13.9,91,0.00,,,0.00,VWS V13.01,2013-02-25 06:08:00,
2013-02-25 00:09:00,37.1,34.7,29.97,ENE,69,12.8,13.3,91,0.00,,,0.00,VWS V13.01,2013-02-25 06:09:00,
2013-02-25 00:10:00,28.3,27.7,30.14,ENE,58,0.0,0.0,98,0.00,,,0.00,VWS V13.01,2013-02-25 06:10:00,
2013-02-25 00:11:00,36.9,34.5,29.98,ENE,68,12.7,15.2,91,0.00,,,0.00,VWS V13.01,2013-02-25 06:11:00,
2013-02-25 00:12:00,37.1,34.8,29.98,East,86,13.4,15.8,91,0.00,,,0.00,VWS V13.01,2013-02-25 06:12:00,
2013-02-25 00:13:00,37.1,34.7,29.98,ENE,59,10.4,13.3,91,0.00,,,0.00,VWS V13.01,2013-02-25 06:13:00,
2013-02-25 00:14:00,36.9,34.5,29.98,East,83,11.3,15.7,91,0.00,,,0.00,VWS V13.01,2013-02-25 06:14:00,
2013-02-25 00:15:00,28.2,27.6,30.13,NE,56,5.2,5.4,98,0.00,,,0.00,VWS V13.01,2013-02-25 06:15:00,
2013-02-25 00:16:00,37.1,34.7,29.98,East,79,10.6,12.3,91,0.00,,,0.00,VWS V13.01,2013-02-25 06:16:00,
2013-02-25 00:17:00,36.7,34.3,29.98,ENE,69,13.7,14.3,91,0.00,,,0.00,VWS V13.01,2013-02-25 06:17:00,
2013-02-25 00:18:00,36.9,34.5,29.98,East,89,8.9,12.1,91,0.00,,,0.00,VWS V13.01,2013-02-25 06:18:00,
2013-02-25 00:19:00,36.9,34.5,29.98,NE,51,9.9,13.7,91,0.00,,,0.00,VWS V13.01,2013-02-25 06:19:00,
2013-02-25 00:20:00,28.6,28.0,30.13,ENE,73,2.0,5.2,98,0.00,,,0.00,VWS V13.01,2013-02-25 06:20:00,
2013-02-25 00:21:00,36.8,34.5,29.97,NE,51,12.4,12.7,91,0.00,,,0.00,VWS V13.01,2013-02-25 06:21:00,
2013-02-25 00:22:00,36.9,34.6,29.97,NE,48,10.9,13.9,91,0.00,,,0.00,VWS V13.01,2013-02-25 06:22:00,
2013-02-25 00:23:00,36.6,34.4,29.97,NE,41,14.8,14.8,92,0.00,,,0.00,VWS V13.01,2013-02-25 06:23:00,
2013-02-25 00:24:00,36.8,34.6,29.97,East,82,10.6,12.9,92,0.00,,,0.00,VWS V13.01,2013-02-25 06:24:00,
2013-02-25 00:25:00,28.3,27.7,30.13,ENE,62,4.3,6.0,98,0.00,,,0.00,VWS V13.01,2013-02-25 06:25:00,
2013-02-25 00:26:00,36.3,34.3,29.97,NE,45,8.9,11.7,92,0.00,,,0.00,VWS V13.01,2013-02-25 06:26:00,
2013-02-25 00:27:00,36.2,34.1,29.97,NE,34,12.7,13.6,92,0.00,,,0.00,VWS V13.01,2013-02-25 06:27:00,
2013-02-25 00:28:00,36.2,33.9,29.97,ENE,73,10.9,16.2,91,0.00,,,0.00,VWS V13.01,2013-02-25 06:28:00,
2013-02-25 00:29:00,36.5,34.2,29.97,ENE,77,11.7,13.5,91,0.00,,,0.00,VWS V13.01,2013-02-25 06:29:00,
2013-02-25 00:30:00,28.3,27.7,30.13,ENE,65,0.0,0.0,98,0.00,,,0.00,VWS V13.01,2013-02-25 06:30:00,
2013-02-25 00:31:00,36.7,34.3,29.97,ENE,69,12.3,15.5,91,0.00,,,0.00,VWS V13.01,2013-02-25 06:31:00,
2013-02-25 00:32:00,36.1,33.6,29.97,NE,37,11.4,12.4,91,0.00,,,0.00,VWS V13.01,2013-02-25 06:32:00,
2013-02-25 00:33:00,36.5,34.0,29.97,ENE,73,12.3,12.9,91,0.00,,,0.00,VWS V13.01,2013-02-25 06:33:00,
2013-02-25 00:34:00,36.4,34.0,29.97,ENE,62,11.2,13.6,91,0.00,,,0.00,VWS V13.01,2013-02-25 06:34:00,
2013-02-25 00:35:00,28.6,27.9,30.13,ENE,65,0.0,0.0,97,0.00,,,0.00,VWS V13.01,2013-02-25 06:35:00,
2013-02-25 00:36:00,36.3,33.9,29.97,NE,42,10.0,11.6,91,0.00,,,0.00,VWS V13.01,2013-02-25 06:36:00,
2013-02-25 00:37:00,36.3,33.9,29.97,ENE,62,11.4,12.6,91,0.00,,,0.00,VWS V13.01,2013-02-25 06:37:00,
2013-02-25 00:38:00,36.3,33.9,29.97,ESE,110,10.0,13.7,91,0.00,,,0.00,VWS V13.01,2013-02-25 06:38:00,
2013-02-25 00:39:00,36.2,33.8,29.97,ENE,60,11.2,15.7,91,0.00,,,0.00,VWS V13.01,2013-02-25 06:39:00,
2013-02-25 00:40:00,28.4,27.7,30.13,ENE,65,0.0,0.0,97,0.00,,,0.00,VWS V13.01,2013-02-25 06:40:00,
2013-02-25 00:41:00,36.2,33.8,29.97,East,79,13.4,14.0,91,0.00,,,0.00,VWS V13.01,2013-02-25 06:41:00,
2013-02-25 00:42:00,36.4,34.0,29.97,ENE,60,12.1,15.2,91,0.00,,,0.00,VWS V13.01,2013-02-25 06:42:00,
2013-02-25 00:43:00,36.5,34.0,29.97,East,83,14.0,14.7,91,0.00,,,0.00,VWS V13.01,2013-02-25 06:43:00,
2013-02-25 00:44:00,36.1,33.6,29.97,East,79,12.7,15.4,91,0.00,,,0.00,VWS V13.01,2013-02-25 06:44:00,
2013-02-25 00:45:00,28.3,27.5,30.13,ENE,60,4.8,5.5,97,0.00,,,0.00,VWS V13.01,2013-02-25 06:45:00,
2013-02-25 00:46:00,36.1,33.6,29.97,ENE,63,15.5,16.4,90,0.00,,,0.00,VWS V13.01,2013-02-25 06:46:00,
2013-02-25 00:47:00,36.1,33.6,29.97,ENE,73,13.7,15.1,91,0.00,,,0.00,VWS V13.01,2013-02-25 06:47:00,
2013-02-25 00:48:00,36.3,33.8,29.97,ENE,69,12.5,15.9,91,0.00,,,0.00,VWS V13.01,2013-02-25 06:48:00,
2013-02-25 00:49:00,36.0,33.6,29.97,ENE,70,13.0,15.9,91,0.00,,,0.00,VWS V13.01,2013-02-25 06:49:00,
2013-02-25 00:50:00,28.4,27.7,30.13,ENE,63,4.5,5.3,97,0.00,,,0.00,VWS V13.01,2013-02-25 06:50:00,
2013-02-25 00:51:00,36.2,33.8,29.96,ENE,58,12.6,16.9,91,0.00,,,0.00,VWS V13.01,2013-02-25 06:51:00,
2013-02-25 00:52:00,36.1,33.7,29.96,ENE,70,12.3,14.5,91,0.00,,,0.00,VWS V13.01,2013-02-25 06:52:00,
2013-02-25 00:53:00,35.9,33.5,29.96,ENE,60,12.3,15.7,91,0.00,,,0.00,VWS V13.01,2013-02-25 06:53:00,
2013-02-25 00:54:00,36.0,33.5,29.96,ENE,76,13.1,14.5,90,0.00,,,0.00,VWS V13.01,2013-02-25 06:54:00,
2013-02-25 00:55:00,28.1,27.3,30.13,ENE,68,2.0,5.0,97,0.00,,,0.00,VWS V13.01,2013-02-25 06:55:00,
2013-02-25 00:56:00,35.9,33.5,29.97,ENE,68,10.0,12.1,91,0.00,,,0.00,VWS V13.01,2013-02-25 06:56:00,
2013-02-25 00:57:00,35.9,33.6,29.97,NE,45,12.6,16.3,91,0.00,,,0.00,VWS V13.01,2013-02-25 06:57:00,
2013-02-25 00:58:00,35.9,33.6,29.96,ENE,62,11.1,18.0,91,0.00,,,0.00,VWS V13.01,2013-02-25 06:58:00,
2013-02-25 00:59:00,35.7,33.4,29.96,NE,56,10.5,13.9,91,0.00,,,0.00,VWS V13.01,2013-02-25 06:59:00,
2013-02-25 01:00:00,27.9,27.2,30.13,ENE,69,4.3,4.7,97,0.00,,,0.00,VWS V13.01,2013-02-25 07:00:00,
2013-02-25 01:01:00,35.8,33.6,29.96,NE,49,9.5,15.2,92,0.00,,,0.00,VWS V13.01,2013-02-25 07:01:00,
2013-02-25 01:02:00,35.6,33.4,29.96,East,80,12.7,17.7,92,0.00,,,0.00,VWS V13.01,2013-02-25 07:02:00,
2013-02-25 01:03:00,35.8,33.5,29.96,ENE,63,14.0,15.8,91,0.00,,,0.00,VWS V13.01,2013-02-25 07:03:00,
2013-02-25 01:04:00,35.6,33.4,29.96,ENE,70,15.3,15.3,92,0.00,,,0.00,VWS V13.01,2013-02-25 07:04:00,
2013-02-25 01:05:00,27.5,26.7,30.13,East,80,4.8,5.1,97,0.00,,,0.00,VWS V13.01,2013-02-25 07:05:00,
2013-02-25 01:06:00,35.6,33.3,29.96,ESE,107,13.0,15.8,91,0.00,,,0.00,VWS V13.01,2013-02-25 07:06:00,
2013-02-25 01:07:00,35.8,33.6,29.96,East,100,11.6,15.2,92,0.00,,,0.00,VWS V13.01,2013-02-25 07:07:00,
2013-02-25 01:08:00,35.6,33.3,29.96,East,80,11.1,13.5,91,0.00,,,0.00,VWS V13.01,2013-02-25 07:08:00,
2013-02-25 01:09:00,35.7,33.5,29.96,ENE,72,11.8,14.2,91,0.00,,,0.00,VWS V13.01,2013-02-25 07:09:00,
2013-02-25 01:10:00,27.4,26.7,30.13,ENE,68,5.6,5.6,97,0.00,,,0.00,VWS V13.01,2013-02-25 07:10:00,
2013-02-25 01:11:00,35.8,33.6,29.96,East,87,10.7,12.3,92,0.00,,,0.00,VWS V13.01,2013-02-25 07:11:00,
2013-02-25 01:12:00,35.6,33.3,29.96,ENE,59,14.8,17.1,91,0.00,,,0.00,VWS V13.01,2013-02-25 07:12:00,
2013-02-25 01:13:00,35.8,33.5,29.96,ENE,68,12.8,18.2,91,0.00,,,0.00,VWS V13.01,2013-02-25 07:13:00,
2013-02-25 01:14:00,35.8,33.4,29.96,ENE,70,12.9,18.5,91,0.00,,,0.00,VWS V13.01,2013-02-25 07:14:00,
2013-02-25 01:15:00,27.3,26.7,30.13,ENE,63,6.0,6.4,97,0.00,,,0.00,VWS V13.01,2013-02-25 07:15:00,
2013-02-25 01:16:00,35.8,33.4,29.96,ENE,58,12.7,14.9,91,0.00,,,0.00,VWS V13.01,2013-02-25 07:16:00,
2013-02-25 01:17:00,35.6,33.1,29.96,East,100,12.7,15.2,91,0.00,,,0.00,VWS V13.01,2013-02-25 07:17:00,
2013-02-25 01:18:00,35.6,33.1,29.96,ENE,66,11.5,19.4,90,0.00,,,0.00,VWS V13.01,2013-02-25 07:18:00,
2013-02-25 01:19:00,35.7,33.2,29.96,NE,52,12.8,14.9,91,0.00,,,0.00,VWS V13.01,2013-02-25 07:19:00,
2013-02-25 01:20:00,27.4,26.7,30.13,ENE,69,6.0,6.7,97,0.00,,,0.00,VWS V13.01,2013-02-25 07:20:00,
2013-02-25 01:21:00,35.8,33.5,29.96,ENE,62,10.6,16.6,91,0.00,,,0.00,VWS V13.01,2013-02-25 07:21:00,
2013-02-25 01:22:00,35.8,33.5,29.95,ENE,72,14.0,16.3,91,0.00,,,0.00,VWS V13.01,2013-02-25 07:22:00,
2013-02-25 01:23:00,35.6,33.4,29.95,ENE,59,12.7,15.2,92,0.00,,,0.00,VWS V13.01,2013-02-25 07:23:00,
2013-02-25 01:24:00,35.6,33.4,29.95,ENE,60,12.2,13.0,92,0.00,,,0.00,VWS V13.01,2013-02-25 07:24:00,
2013-02-25 01:25:00,27.6,27.0,30.14,ENE,69,5.3,5.4,97,0.00,,,0.00,VWS V13.01,2013-02-25 07:25:00,
2013-02-25 01:26:00,35.6,33.6,29.95,ENE,68,10.9,16.3,92,0.00,,,0.00,VWS V13.01,2013-02-25 07:26:00,
2013-02-25 01:27:00,35.5,33.6,29.95,ENE,60,10.6,13.2,93,0.00,,,0.00,VWS V13.01,2013-02-25 07:27:00,
2013-02-25 01:28:00,35.6,33.8,29.95,ENE,60,10.8,13.9,93,0.00,,,0.00,VWS V13.01,2013-02-25 07:28:00,
2013-02-25 01:29:00,35.5,33.7,29.95,ENE,60,13.4,17.1,93,0.00,,,0.00,VWS V13.01,2013-02-25 07:29:00,
2013-02-25 01:30:00,27.5,26.7,30.14,NE,56,4.3,5.3,97,0.00,,,0.00,VWS V13.01,2013-02-25 07:30:00,
2013-02-25 01:31:00,35.5,33.8,29.95,NE,46,12.2,14.2,93,0.00,,,0.00,VWS V13.01,2013-02-25 07:31:00,
2013-02-25 01:32:00,35.3,33.6,29.95,East,80,12.1,16.7,94,0.00,,,0.00,VWS V13.01,2013-02-25 07:32:00,
2013-02-25 01:33:00,35.4,33.8,29.95,ENE,68,10.1,14.1,94,0.00,,,0.00,VWS V13.01,2013-02-25 07:33:00,
2013-02-25 01:34:00,27.3,26.6,30.14,NE,51,4.5,5.0,97,0.00,,,0.00,VWS V13.01,2013-02-25 07:34:00,
2013-02-25 01:35:00,35.5,33.8,29.95,ENE,72,13.9,16.1,94,0.00,,,0.00,VWS V13.01,2013-02-25 07:35:00,
2013-02-25 01:36:00,35.5,33.9,29.95,ENE,72,12.6,15.3,94,0.00,,,0.00,VWS V13.01,2013-02-25 07:36:00,
2013-02-25 01:37:00,35.4,33.8,29.95,East,82,12.2,16.2,94,0.00,,,0.00,VWS V13.01,2013-02-25 07:37:00,
2013-02-25 01:38:00,35.4,33.8,29.95,ENE,75,12.8,15.5,94,0.00,,,0.00,VWS V13.01,2013-02-25 07:38:00,
2013-02-25 01:39:00,26.8,26.1,30.14,NE,48,5.5,5.8,97,0.00,,,0.00,VWS V13.01,2013-02-25 07:39:00,
2013-02-25 01:40:00,35.5,33.9,29.95,ENE,72,16.5,17.3,94,0.00,,,0.00,VWS V13.01,2013-02-25 07:40:00,
2013-02-25 01:41:00,35.3,33.7,29.95,ENE,59,13.5,16.3,94,0.00,,,0.00,VWS V13.01,2013-02-25 07:41:00,
2013-02-25 01:42:00,35.3,33.6,29.95,SE,134,8.1,15.6,94,0.00,,,0.00,VWS V13.01,2013-02-25 07:42:00,
2013-02-25 01:43:00,35.5,33.9,29.95,ENE,69,13.9,14.4,94,0.00,,,0.00,VWS V13.01,2013-02-25 07:43:00,
2013-02-25 01:44:00,27.0,26.4,30.14,NE,52,4.9,4.9,98,0.00,,,0.00,VWS V13.01,2013-02-25 07:44:00,
2013-02-25 01:45:00,35.4,33.7,29.95,ENE,66,11.6,16.2,94,0.00,,,0.00,VWS V13.01,2013-02-25 07:45:00,
2013-02-25 01:46:00,35.5,33.7,29.95,NE,42,14.7,16.3,93,0.00,,,0.00,VWS V13.01,2013-02-25 07:46:00,
2013-02-25 01:47:00,35.4,33.7,29.95,ENE,69,17.8,17.8,93,0.00,,,0.00,VWS V13.01,2013-02-25 07:47:00,
2013-02-25 01:48:00,35.3,33.5,29.95,NE,56,13.4,17.3,93,0.00,,,0.00,VWS V13.01,2013-02-25 07:48:00,
2013-02-25 01:49:00,26.9,26.3,30.14,NNE,31,5.0,5.1,98,0.00,,,0.00,VWS V13.01,2013-02-25 07:49:00,
2013-02-25 01:50:00,35.4,33.6,29.95,East,79,13.4,16.3,93,0.00,,,0.00,VWS V13.01,2013-02-25 07:50:00,
2013-02-25 01:51:00,35.4,33.6,29.94,NE,55,14.4,15.8,93,0.00,,,0.00,VWS V13.01,2013-02-25 07:51:00,
2013-02-25 01:52:00,35.5,33.7,29.95,ENE,59,11.1,15.7,93,0.00,,,0.00,VWS V13.01,2013-02-25 07:52:00,
2013-02-25 01:53:00,35.2,33.4,29.95,ENE,70,8.1,18.8,93,0.00,,,0.00,VWS V13.01,2013-02-25 07:53:00,
2013-02-25 01:54:00,26.8,26.3,30.13,NNE,25,5.1,5.1,98,0.00,,,0.00,VWS V13.01,2013-02-25 07:54:00,
2013-02-25 01:55:00,35.5,33.6,29.95,ENE,70,11.9,16.2,93,0.00,,,0.00,VWS V13.01,2013-02-25 07:55:00,
2013-02-25 01:56:00,35.6,33.8,29.95,NE,46,12.5,17.1,93,0.00,,,0.00,VWS V13.01,2013-02-25 07:56:00,
2013-02-25 01:57:00,35.3,33.4,29.95,ENE,58,17.2,18.5,93,0.00,,,0.00,VWS V13.01,2013-02-25 07:57:00,
2013-02-25 01:58:00,35.6,33.6,29.95,ENE,63,13.5,16.5,92,0.00,,,0.00,VWS V13.01,2013-02-25 07:58:00,
2013-02-25 01:59:00,26.8,26.2,30.14,NNE,25,4.8,5.3,98,0.00,,,0.00,VWS V13.01,2013-02-25 07:59:00,
2013-02-25 02:00:00,35.6,33.5,29.95,East,79,13.1,16.3,92,0.00,,,0.00,VWS V13.01,2013-02-25 08:00:00,
2013-02-25 02:01:00,35.5,33.4,29.95,ENE,70,16.2,19.7,92,0.00,,,0.00,VWS V13.01,2013-02-25 08:01:00,
2013-02-25 02:02:00,35.4,33.2,29.95,ENE,75,13.2,18.7,92,0.00,,,0.00,VWS V13.01,2013-02-25 08:02:00,
2013-02-25 02:03:00,35.5,33.4,29.95,NE,52,12.6,15.5,92,0.00,,,0.00,VWS V13.01,2013-02-25 08:03:00,
2013-02-25 02:04:00,26.6,25.9,30.14,NE,37,5.5,6.5,97,0.00,,,0.00,VWS V13.01,2013-02-25 08:04:00,
2013-02-25 02:05:00,35.5,33.3,29.95,ENE,66,13.5,16.8,92,0.00,,,0.00,VWS V13.01,2013-02-25 08:05:00,
2013-02-25 02:06:00,35.5,33.3,29.95,ENE,72,12.9,17.1,92,0.00,,,0.00,VWS V13.01,2013-02-25 08:06:00,
2013-02-25 02:07:00,35.5,33.4,29.95,ENE,68,14.7,15.9,92,0.00,,,0.00,VWS V13.01,2013-02-25 08:07:00,
2013-02-25 02:08:00,35.4,33.3,29.96,ENE,62,12.7,16.4,92,0.00,,,0.00,VWS V13.01,2013-02-25 08:08:00,
2013-02-25 02:09:00,26.7,26.2,30.14,NE,45,4.7,5.2,98,0.00,,,0.00,VWS V13.01,2013-02-25 08:09:00,
2013-02-25 02:10:00,35.5,33.3,29.95,ENE,63,15.7,17.8,92,0.00,,,0.00,VWS V13.01,2013-02-25 08:10:00,
2013-02-25 02:11:00,35.5,33.2,29.95,NE,51,14.4,17.4,91,0.00,,,0.00,VWS V13.01,2013-02-25 08:11:00,
2013-02-25 02:12:00,35.5,33.3,29.95,ENE,76,13.8,18.9,92,0.00,,,0.00,VWS V13.01,2013-02-25 08:12:00,
2013-02-25 02:13:00,35.4,33.2,29.95,NE,51,14.4,19.4,91,0.00,,,0.00,VWS V13.01,2013-02-25 08:13:00,
2013-02-25 02:14:00,26.6,26.1,30.14,NE,41,5.0,5.7,98,0.00,,,0.00,VWS V13.01,2013-02-25 08:14:00,
2013-02-25 02:15:00,35.4,33.1,29.96,ENE,70,14.7,17.3,91,0.00,,,0.00,VWS V13.01,2013-02-25 08:15:00,
2013-02-25 02:16:00,35.5,33.2,29.96,NE,53,13.6,16.2,91,0.00,,,0.00,VWS V13.01,2013-02-25 08:16:00,
2013-02-25 02:17:00,35.5,33.1,29.96,East,80,13.9,20.4,91,0.00,,,0.00,VWS V13.01,2013-02-25 08:17:00,
2013-02-25 02:18:00,35.6,32.9,29.96,ENE,66,15.7,20.1,90,0.00,,,0.00,VWS V13.01,2013-02-25 08:18:00,
2013-02-25 02:19:00,27.0,26.4,30.14,NE,41,4.7,4.8,98,0.00,,,0.00,VWS V13.01,2013-02-25 08:19:00,
2013-02-25 02:20:00,35.5,32.9,29.96,NE,56,18.5,18.5,90,0.00,,,0.00,VWS V13.01,2013-02-25 08:20:00,
2013-02-25 02:21:00,35.7,33.1,29.96,ENE,73,13.4,16.8,90,0.00,,,0.00,VWS V13.01,2013-02-25 08:21:00,
2013-02-25 02:22:00,35.6,32.8,29.96,NE,41,14.4,19.4,89,0.00,,,0.00,VWS V13.01,2013-02-25 08:22:00,
2013-02-25 02:23:00,35.6,32.8,29.97,ENE,66,16.6,16.8,90,0.00,,,0.00,VWS V13.01,2013-02-25 08:23:00,
2013-02-25 02:24:00,26.8,26.2,30.14,NNE,24,0.0,0.0,98,0.00,,,0.00,VWS V13.01,2013-02-25 08:24:00,
2013-02-25 02:25:00,35.7,32.9,29.97,NE,49,12.1,14.7,89,0.00,,,0.00,VWS V13.01,2013-02-25 08:25:00,
2013-02-25 02:26:00,35.7,32.8,29.97,ENE,62,12.9,14.7,89,0.00,,,0.00,VWS V13.01,2013-02-25 08:26:00,
2013-02-25 02:27:00,35.7,32.8,29.98,ENE,68,10.0,13.4,89,0.00,,,0.00,VWS V13.01,2013-02-25 08:27:00,
2013-02-25 02:28:00,35.6,32.8,29.98,NE,52,14.2,14.2,90,0.00,,,0.00,VWS V13.01,2013-02-25 08:28:00,
2013-02-25 02:29:00,26.7,26.1,30.13,NNE,24,0.0,0.0,98,0.00,,,0.00,VWS V13.01,2013-02-25 08:29:00,
2013-02-25 02:30:00,35.5,32.7,29.99,ENE,59,11.6,13.9,89,0.00,,,0.00,VWS V13.01,2013-02-25 08:30:00,
2013-02-25 02:31:00,35.7,32.9,29.98,ENE,62,10.7,12.4,89,0.00,,,0.00,VWS V13.01,2013-02-25 08:31:00,
2013-02-25 02:32:00,35.6,32.8,29.99,ENE,73,12.1,14.9,89,0.00,,,0.00,VWS V13.01,2013-02-25 08:32:00,
2013-02-25 02:33:00,35.6,32.7,29.99,ENE,76,13.8,13.9,89,0.00,,,0.00,VWS V13.01,2013-02-25 08:33:00,
2013-02-25 02:34:00,26.6,26.0,30.13,NNE,24,0.0,0.0,97,0.00,,,0.00,VWS V13.01,2013-02-25 08:34:00,
2013-02-25 02:35:00,35.8,32.8,29.99,ENE,73,13.2,14.7,89,0.00,,,0.00,VWS V13.01,2013-02-25 08:35:00,
2013-02-25 02:36:00,35.8,32.8,30.00,ENE,72,9.4,13.2,89,0.00,,,0.00,VWS V13.01,2013-02-25 08:36:00,
2013-02-25 02:37:00,35.7,32.7,30.00,ENE,59,9.9,10.6,89,0.00,,,0.00,VWS V13.01,2013-02-25 08:37:00,
2013-02-25 02:38:00,35.9,33.0,30.00,ENE,60,14.8,14.8,89,0.00,,,0.00,VWS V13.01,2013-02-25 08:38:00,
2013-02-25 02:39:00,26.9,26.3,30.13,NNE,24,0.0,0.0,98,0.00,,,0.00,VWS V13.01,2013-02-25 08:39:00,
2013-02-25 02:40:00,35.8,32.8,30.00,ENE,76,9.4,12.6,89,0.00,,,0.00,VWS V13.01,2013-02-25 08:40:00,
2013-02-25 02:41:00,35.6,32.7,30.00,ENE,66,9.1,11.4,89,0.00,,,0.00,VWS V13.01,2013-02-25 08:41:00,
2013-02-25 02:42:00,35.7,32.7,30.00,ENE,58,7.5,10.4,89,0.00,,,0.00,VWS V13.01,2013-02-25 08:42:00,
2013-02-25 02:43:00,35.7,32.8,30.01,ENE,62,8.3,8.5,89,0.00,,,0.00,VWS V13.01,2013-02-25 08:43:00,
2013-02-25 02:44:00,26.6,26.0,30.13,NNE,24,0.0,0.0,98,0.00,,,0.00,VWS V13.01,2013-02-25 08:44:00,
2013-02-25 02:45:00,35.6,32.6,30.01,ENE,69,7.8,9.3,89,0.00,,,0.00,VWS V13.01,2013-02-25 08:45:00,
2013-02-25 02:46:00,35.7,32.8,30.01,East,79,8.5,10.1,89,0.00,,,0.00,VWS V13.01,2013-02-25 08:46:00,
2013-02-25 02:47:00,35.8,32.9,30.01,ENE,75,7.0,7.9,89,0.00,,,0.00,VWS V13.01,2013-02-25 08:47:00,
2013-02-25 02:48:00,35.9,33.0,30.01,ENE,68,7.2,7.3,89,0.00,,,0.00,VWS V13.01,2013-02-25 08:48:00,
2013-02-25 02:49:00,26.6,26.0,30.13,NNE,24,0.0,0.0,98,0.00,,,0.00,VWS V13.01,2013-02-25 08:49:00,
2013-02-25 02:50:00,35.7,32.8,30.01,ENE,77,7.5,9.7,89,0.00,,,0.00,VWS V13.01,2013-02-25 08:50:00,
2013-02-25 02:51:00,35.9,33.0,30.00,NE,53,7.8,9.8,89,0.00,,,0.00,VWS V13.01,2013-02-25 08:51:00,
2013-02-25 02:52:00,35.7,32.8,30.00,East,83,7.9,10.4,89,0.00,,,0.00,VWS V13.01,2013-02-25 08:52:00,
2013-02-25 02:53:00,35.8,32.8,30.00,ENE,66,9.8,11.2,89,0.00,,,0.00,VWS V13.01,2013-02-25 08:53:00,
2013-02-25 02:54:00,26.4,25.9,30.14,NNE,24,0.0,0.0,98,0.00,,,0.00,VWS V13.01,2013-02-25 08:54:00,
2013-02-25 02:55:00,35.8,32.8,30.00,ENE,65,9.6,11.5,89,0.00,,,0.00,VWS V13.01,2013-02-25 08:55:00,
2013-02-25 02:56:00,35.8,32.9,30.00,East,84,8.9,10.1,89,0.00,,,0.00,VWS V13.01,2013-02-25 08:56:00,
2013-02-25 02:57:00,35.6,32.7,30.00,ENE,65,10.3,10.5,89,0.00,,,0.00,VWS V13.01,2013-02-25 08:57:00,
2013-02-25 02:58:00,35.6,32.7,30.00,ENE,69,9.3,11.7,89,0.00,,,0.00,VWS V13.01,2013-02-25 08:58:00,
2013-02-25 02:59:00,26.4,25.9,30.13,NNE,24,0.0,0.0,98,0.00,,,0.00,VWS V13.01,2013-02-25 08:59:00,
2013-02-25 03:00:00,35.6,32.7,29.99,ENE,60,13.1,13.1,89,0.00,,,0.00,VWS V13.01,2013-02-25 09:00:00,
2013-02-25 03:01:00,35.6,32.7,29.99,ENE,65,12.0,12.7,89,0.00,,,0.00,VWS V13.01,2013-02-25 09:01:00,
2013-02-25 03:02:00,35.7,32.7,29.98,ENE,76,12.6,14.7,89,0.00,,,0.00,VWS V13.01,2013-02-25 09:02:00,
2013-02-25 03:03:00,35.6,32.5,29.98,ENE,68,12.1,16.2,88,0.00,,,0.00,VWS V13.01,2013-02-25 09:03:00,
2013-02-25 03:04:00,26.7,26.2,30.13,NNE,24,0.0,0.0,98,0.00,,,0.00,VWS V13.01,2013-02-25 09:04:00,
2013-02-25 03:05:00,35.5,32.5,29.98,ENE,60,12.3,14.6,89,0.00,,,0.00,VWS V13.01,2013-02-25 09:05:00,
2013-02-25 03:06:00,35.5,32.4,29.97,ENE,76,13.9,15.7,88,0.00,,,0.00,VWS V13.01,2013-02-25 09:06:00,
2013-02-25 03:07:00,35.7,32.7,29.97,ENE,58,11.4,16.7,89,0.00,,,0.00,VWS V13.01,2013-02-25 09:07:00,
2013-02-25 03:08:00,35.7,32.8,29.97,ENE,70,12.2,14.3,89,0.00,,,0.00,VWS V13.01,2013-02-25 09:08:00,
2013-02-25 03:09:00,26.6,26.2,30.14,NNE,24,0.0,0.0,98,0.00,,,0.00,VWS V13.01,2013-02-25 09:09:00,
2013-02-25 03:10:00,35.6,32.3,29.97,ENE,70,13.4,18.1,88,0.00,,,0.00,VWS V13.01,2013-02-25 09:10:00,
2013-02-25 03:11:00,35.6,32.3,29.97,East,80,12.0,17.4,88,0.00,,,0.00,VWS V13.01,2013-02-25 09:11:00,
2013-02-25 03:12:00,35.6,32.3,29.97,ENE,68,13.6,15.1,88,0.00,,,0.00,VWS V13.01,2013-02-25 09:12:00,
2013-02-25 03:13:00,35.7,32.5,29.97,ENE,58,14.7,16.6,88,0.00,,,0.00,VWS V13.01,2013-02-25 09:13:00,
2013-02-25 03:14:00,26.5,26.1,30.13,NNE,24,0.0,0.0,98,0.00,,,0.00,VWS V13.01,2013-02-25 09:14:00,
2013-02-25 03:15:00,35.7,32.4,29.97,ENE,75,12.1,17.1,88,0.00,,,0.00,VWS V13.01,2013-02-25 09:15:00,
2013-02-25 03:16:00,35.7,32.4,29.96,ENE,72,13.7,16.7,88,0.00,,,0.00,VWS V13.01,2013-02-25 09:16:00,
2013-02-25 03:17:00,35.6,32.3,29.96,ENE,68,18.0,18.5,88,0.00,,,0.00,VWS V13.01,2013-02-25 09:17:00,
2013-02-25 03:18:00,35.6,32.0,29.96,NE,52,16.3,21.3,86,0.00,,,0.00,VWS V13.01,2013-02-25 09:18:00,
2013-02-25 03:19:00,26.5,26.0,30.13,NNE,24,0.0,0.0,98,0.00,,,0.00,VWS V13.01,2013-02-25 09:19:00,
2013-02-25 03:20:00,35.5,32.2,29.96,ENE,76,13.0,16.0,88,0.00,,,0.00,VWS V13.01,2013-02-25 09:20:00,
2013-02-25 03:21:00,35.6,32.4,29.96,ENE,63,12.1,17.0,88,0.00,,,0.00,VWS V13.01,2013-02-25 09:21:00,
2013-02-25 03:22:00,35.6,32.4,29.96,ENE,69,15.5,15.5,88,0.00,,,0.00,VWS V13.01,2013-02-25 09:22:00,
2013-02-25 03:23:00,35.6,32.2,29.96,ENE,73,12.9,16.1,87,0.00,,,0.00,VWS V13.01,2013-02-25 09:23:00,
2013-02-25 03:24:00,26.3,25.9,30.13,NNE,24,0.0,0.0,98,0.00,,,0.00,VWS V13.01,2013-02-25 09:24:00,
2013-02-25 03:25:00,35.5,32.3,29.95,ENE,75,16.5,16.8,88,0.00,,,0.00,VWS V13.01,2013-02-25 09:25:00,
2013-02-25 03:26:00,35.6,32.3,29.95,East,79,13.7,17.9,88,0.00,,,0.00,VWS V13.01,2013-02-25 09:26:00,
2013-02-25 03:27:00,35.5,32.4,29.95,East,84,12.0,16.5,88,0.00,,,0.00,VWS V13.01,2013-02-25 09:27:00,
2013-02-25 03:28:00,35.4,32.2,29.95,ENE,60,17.7,20.9,88,0.00,,,0.00,VWS V13.01,2013-02-25 09:28:00,
2013-02-25 03:29:00,26.6,26.2,30.13,NNE,24,0.0,0.0,98,0.00,,,0.00,VWS V13.01,2013-02-25 09:29:00,
2013-02-25 03:30:00,35.4,32.3,29.95,NE,51,14.9,17.8,88,0.00,,,0.00,VWS V13.01,2013-02-25 09:30:00,
2013-02-25 03:31:00,35.4,32.3,29.95,NE,53,15.3,18.2,88,0.00,,,0.00,VWS V13.01,2013-02-25 09:31:00,
2013-02-25 03:32:00,35.4,32.5,29.94,NE,52,12.7,14.5,89,0.00,,,0.00,VWS V13.01,2013-02-25 09:32:00,
2013-02-25 03:33:00,35.4,32.6,29.94,NE,49,11.2,15.6,89,0.00,,,0.00,VWS V13.01,2013-02-25 09:33:00,
2013-02-25 03:34:00,26.7,26.2,30.13,NNE,24,0.0,0.0,98,0.00,,,0.00,VWS V13.01,2013-02-25 09:34:00,
2013-02-25 03:35:00,35.2,32.6,29.94,NE,39,15.0,15.3,90,0.00,,,0.00,VWS V13.01,2013-02-25 09:35:00,
2013-02-25 03:36:00,35.3,32.9,29.94,ENE,65,15.6,19.9,91,0.00,,,0.00,VWS V13.01,2013-02-25 09:36:00,
2013-02-25 03:37:00,35.3,32.9,29.94,NE,41,13.7,17.1,91,0.00,,,0.00,VWS V13.01,2013-02-25 09:37:00,
2013-02-25 03:38:00,35.3,32.9,29.94,ENE,65,17.0,20.2,91,0.00,,,0.00,VWS V13.01,2013-02-25 09:38:00,
2013-02-25 03:39:00,26.3,25.9,30.13,NNE,24,0.0,0.0,98,0.00,,,0.00,VWS V13.01,2013-02-25 09:39:00,
2013-02-25 03:40:00,35.2,33.0,29.94,NNE,24,16.2,16.4,92,0.00,,,0.00,VWS V13.01,2013-02-25 09:40:00,
2013-02-25 03:41:00,35.1,32.9,29.94,ENE,75,10.9,19.2,92,0.00,,,0.00,VWS V13.01,2013-02-25 09:41:00,
2013-02-25 03:42:00,35.2,33.1,29.94,NE,39,15.7,16.3,92,0.00,,,0.00,VWS V13.01,2013-02-25 09:42:00,
2013-02-25 03:43:00,35.0,32.8,29.93,ENE,63,16.2,18.3,92,0.00,,,0.00,VWS V13.01,2013-02-25 09:43:00,
2013-02-25 03:44:00,26.3,25.9,30.13,NNE,24,0.0,0.0,98,0.00,,,0.00,VWS V13.01,2013-02-25 09:44:00,
2013-02-25 03:45:00,35.2,33.0,29.94,NE,56,12.6,18.5,92,0.00,,,0.00,VWS V13.01,2013-02-25 09:45:00,
2013-02-25 03:46:00,35.3,33.2,29.94,ENE,68,12.5,19.5,92,0.00,,,0.00,VWS V13.01,2013-02-25 09:46:00,
2013-02-25 03:47:00,35.0,32.9,29.94,NE,46,16.3,19.7,92,0.00,,,0.00,VWS V13.01,2013-02-25 09:47:00,
2013-02-25 03:48:00,34.9,32.8,29.93,ENE,73,13.5,16.3,92,0.00,,,0.00,VWS V13.01,2013-02-25 09:48:00,
2013-02-25 03:49:00,26.1,25.7,30.13,NNE,24,0.0,0.0,98,0.00,,,0.00,VWS V13.01,2013-02-25 09:49:00,
2013-02-25 03:50:00,35.3,33.2,29.93,ENE,65,15.8,16.7,92,0.00,,,0.00,VWS V13.01,2013-02-25 09:50:00,
2013-02-25 03:51:00,34.9,32.8,29.93,NE,49,15.3,17.1,92,0.00,,,0.00,VWS V13.01,2013-02-25 09:51:00,
2013-02-25 03:52:00,35.0,32.9,29.93,ENE,72,15.8,16.5,92,0.00,,,0.00,VWS V13.01,2013-02-25 09:52:00,
2013-02-25 03:53:00,35.0,32.9,29.93,East,91,15.5,16.5,92,0.00,,,0.00,VWS V13.01,2013-02-25 09:53:00,
2013-02-25 03:54:00,26.1,25.7,30.12,NNE,24,0.0,0.0,98,0.00,,,0.00,VWS V13.01,2013-02-25 09:54:00,
2013-02-25 03:55:00,35.1,32.9,29.93,ENE,70,17.5,20.1,92,0.00,,,0.00,VWS V13.01,2013-02-25 09:55:00,
2013-02-25 03:56:00,34.9,32.8,29.92,NE,48,17.7,19.6,92,0.00,,,0.00,VWS V13.01,2013-02-25 09:56:00,
2013-02-25 03:57:00,35.1,32.7,29.92,ENE,63,20.1,24.7,91,0.00,,,0.00,VWS V13.01,2013-02-25 09:57:00,
2013-02-25 03:58:00,35.0,32.8,29.92,NE,46,16.2,18.6,92,0.00,,,0.00,VWS V13.01,2013-02-25 09:58:00,
2013-02-25 03:59:00,26.3,26.0,30.13,NNE,24,0.0,0.0,99,0.00,,,0.00,VWS V13.01,2013-02-25 09:59:00,
2013-02-25 04:00:00,34.9,32.6,29.92,ENE,59,15.0,21.8,91,0.00,,,0.00,VWS V13.01,2013-02-25 10:00:00,
2013-02-25 04:01:00,35.0,32.8,29.92,ENE,72,18.5,20.6,92,0.00,,,0.00,VWS V13.01,2013-02-25 10:01:00,
2013-02-25 04:02:00,34.9,32.5,29.92,ENE,65,21.3,21.3,91,0.00,,,0.00,VWS V13.01,2013-02-25 10:02:00,
2013-02-25 04:03:00,35.2,32.8,29.92,NE,38,14.4,18.5,91,0.00,,,0.00,VWS V13.01,2013-02-25 10:03:00,
2013-02-25 04:04:00,26.5,26.2,30.13,NNE,24,0.0,0.0,99,0.00,,,0.00,VWS V13.01,2013-02-25 10:04:00,
2013-02-25 04:05:00,35.0,32.6,29.92,ENE,62,17.6,20.4,91,0.00,,,0.00,VWS V13.01,2013-02-25 10:05:00,
2013-02-25 04:06:00,35.3,32.8,29.91,ENE,77,14.4,19.9,90,0.00,,,0.00,VWS V13.01,2013-02-25 10:06:00,
2013-02-25 04:07:00,35.3,32.8,29.91,ENE,63,16.7,23.5,90,0.00,,,0.00,VWS V13.01,2013-02-25 10:07:00,
2013-02-25 04:08:00,35.0,32.5,29.91,ENE,60,17.9,20.8,90,0.00,,,0.00,VWS V13.01,2013-02-25 10:08:00,
2013-02-25 04:09:00,26.4,26.0,30.14,NNE,24,0.0,0.0,98,0.00,,,0.00,VWS V13.01,2013-02-25 10:09:00,
2013-02-25 04:10:00,35.4,32.8,29.91,ENE,63,15.8,23.0,90,0.00,,,0.00,VWS V13.01,2013-02-25 10:10:00,
2013-02-25 04:11:00,35.3,32.8,29.91,ENE,77,16.5,20.2,90,0.00,,,0.00,VWS V13.01,2013-02-25 10:11:00,
2013-02-25 04:12:00,35.2,32.6,29.91,ENE,66,21.3,21.3,90,0.00,,,0.00,VWS V13.01,2013-02-25 10:12:00,
2013-02-25 04:13:00,35.1,32.5,29.90,ENE,60,16.3,19.7,90,0.00,,,0.00,VWS V13.01,2013-02-25 10:13:00,
2013-02-25 04:14:00,26.6,26.2,30.14,NNE,24,0.0,0.0,98,0.00,,,0.00,VWS V13.01,2013-02-25 10:14:00,
2013-02-25 04:15:00,35.1,32.6,29.90,ENE,60,16.5,21.2,90,0.00,,,0.00,VWS V13.01,2013-02-25 10:15:00,
2013-02-25 04:16:00,35.4,33.0,29.90,ENE,60,15.1,19.9,91,0.00,,,0.00,VWS V13.01,2013-02-25 10:16:00,
2013-02-25 04:17:00,35.2,32.8,29.90,ENE,60,17.1,18.8,91,0.00,,,0.00,VWS V13.01,2013-02-25 10:17:00,
2013-02-25 04:18:00,35.0,32.5,29.90,ENE,70,17.6,21.4,90,0.00,,,0.00,VWS V13.01,2013-02-25 10:18:00,
2013-02-25 04:19:00,26.8,26.3,30.13,NNE,24,0.0,0.0,98,0.00,,,0.00,VWS V13.01,2013-02-25 10:19:00,
2013-02-25 04:20:00,35.1,32.6,29.90,ENE,69,16.1,17.5,91,0.00,,,0.00,VWS V13.01,2013-02-25 10:20:00,
2013-02-25 04:21:00,35.0,32.6,29.91,ENE,59,19.0,19.0,91,0.00,,,0.00,VWS V13.01,2013-02-25 10:21:00,
2013-02-25 04:22:00,35.0,32.5,29.91,ENE,58,16.0,18.6,91,0.00,,,0.00,VWS V13.01,2013-02-25 10:22:00,
2013-02-25 04:23:00,35.1,32.6,29.91,ENE,69,14.5,20.1,91,0.00,,,0.00,VWS V13.01,2013-02-25 10:23:00,
2013-02-25 04:24:00,26.5,26.0,30.13,NNE,24,0.0,0.0,98,0.00,,,0.00,VWS V13.01,2013-02-25 10:24:00,
2013-02-25 04:25:00,35.1,32.7,29.91,ENE,70,14.6,18.0,91,0.00,,,0.00,VWS V13.01,2013-02-25 10:25:00,
2013-02-25 04:26:00,35.2,33.0,29.91,ENE,58,16.6,17.2,91,0.00,,,0.00,VWS V13.01,2013-02-25 10:26:00,
2013-02-25 04:27:00,34.8,32.4,29.91,ENE,75,15.8,19.0,91,0.00,,,0.00,VWS V13.01,2013-02-25 10:27:00,
2013-02-25 04:28:00,34.9,32.4,29.91,ENE,66,15.6,19.3,90,0.00,,,0.00,VWS V13.01,2013-02-25 10:28:00,
2013-02-25 04:29:00,26.6,26.1,30.13,NNE,24,0.0,0.0,98,0.00,,,0.00,VWS V13.01,2013-02-25 10:29:00,
2013-02-25 04:30:00,34.9,32.5,29.90,ENE,60,10.5,18.9,91,0.00,,,0.00,VWS V13.01,2013-02-25 10:30:00,
2013-02-25 04:31:00,35.2,32.7,29.90,ENE,70,17.5,20.9,91,0.00,,,0.00,VWS V13.01,2013-02-25 10:31:00,
2013-02-25 04:32:00,35.1,32.5,29.90,NE,53,18.6,21.1,90,0.00,,,0.00,VWS V13.01,2013-02-25 10:32:00,
2013-02-25 04:33:00,35.1,32.5,29.90,ENE,77,14.9,19.4,90,0.00,,,0.00,VWS V13.01,2013-02-25 10:33:00,
2013-02-25 04:34:00,26.6,26.1,30.14,NNE,24,0.0,0.0,98,0.00,,,0.00,VWS V13.01,2013-02-25 10:34:00,
2013-02-25 04:35:00,35.0,32.3,29.90,ENE,65,18.8,20.1,90,0.00,,,0.00,VWS V13.01,2013-02-25 10:35:00,
2013-02-25 04:36:00,35.0,32.0,29.90,NE,56,16.8,19.7,89,0.00,,,0.00,VWS V13.01,2013-02-25 10:36:00,
2013-02-25 04:37:00,35.3,32.4,29.90,NE,55,17.1,18.5,89,0.00,,,0.00,VWS V13.01,2013-02-25 10:37:00,
2013-02-25 04:38:00,35.3,32.4,29.90,NE,53,19.3,20.6,89,0.00,,,0.00,VWS V13.01,2013-02-25 10:38:00,
2013-02-25 04:39:00,26.6,26.1,30.14,NNE,24,0.0,0.0,98,0.00,,,0.00,VWS V13.01,2013-02-25 10:39:00,
2013-02-25 04:40:00,35.4,32.6,29.90,NE,56,19.2,22.7,89,0.00,,,0.00,VWS V13.01,2013-02-25 10:40:00,
2013-02-25 04:41:00,35.2,32.4,29.89,ENE,66,14.1,18.6,89,0.00,,,0.00,VWS V13.01,2013-02-25 10:41:00,
2013-02-25 04:42:00,35.1,32.3,29.89,NE,55,19.5,21.4,90,0.00,,,0.00,VWS V13.01,2013-02-25 10:42:00,
2013-02-25 04:43:00,35.3,32.6,29.89,East,82,13.7,18.5,90,0.00,,,0.00,VWS V13.01,2013-02-25 10:43:00,
2013-02-25 04:44:00,26.7,26.2,30.15,NNE,24,0.0,0.0,98,0.00,,,0.00,VWS V13.01,2013-02-25 10:44:00,
2013-02-25 04:45:00,35.0,32.3,29.89,NE,39,20.1,21.7,90,0.00,,,0.00,VWS V13.01,2013-02-25 10:45:00,
2013-02-25 04:46:00,35.3,32.4,29.88,ENE,60,20.8,21.1,89,0.00,,,0.00,VWS V13.01,2013-02-25 10:46:00,
2013-02-25 04:47:00,35.2,32.3,29.88,ENE,66,20.5,25.3,89,0.00,,,0.00,VWS V13.01,2013-02-25 10:47:00,
2013-02-25 04:48:00,35.1,32.3,29.88,NE,53,18.9,19.8,90,0.00,,,0.00,VWS V13.01,2013-02-25 10:48:00,
2013-02-25 04:49:00,26.8,26.3,30.15,NNE,24,0.0,0.0,98,0.00,,,0.00,VWS V13.01,2013-02-25 10:49:00,
2013-02-25 04:50:00,35.0,32.2,29.88,ENE,66,18.0,24.0,89,0.00,,,0.00,VWS V13.01,2013-02-25 10:50:00,
2013-02-25 04:51:00,35.1,32.4,29.88,NE,52,15.8,19.9,90,0.00,,,0.00,VWS V13.01,2013-02-25 10:51:00,
2013-02-25 04:52:00,35.2,32.6,29.88,ENE,68,13.9,15.7,90,0.00,,,0.00,VWS V13.01,2013-02-25 10:52:00,
2013-02-25 04:53:00,35.0,32.5,29.88,NE,49,12.8,17.7,90,0.00,,,0.00,VWS V13.01,2013-02-25 10:53:00,
2013-02-25 04:54:00,26.8,26.2,30.15,NNE,24,0.0,0.0,98,0.00,,,0.00,VWS V13.01,2013-02-25 10:54:00,
2013-02-25 04:55:00,34.8,32.4,29.89,ENE,69,14.0,18.1,91,0.00,,,0.00,VWS V13.01,2013-02-25 10:55:00,
2013-02-25 04:56:00,35.0,32.6,29.89,East,91,15.1,22.3,91,0.00,,,0.00,VWS V13.01,2013-02-25 10:56:00,
2013-02-25 04:57:00,35.3,33.0,29.89,NNE,27,17.5,17.9,91,0.00,,,0.00,VWS V13.01,2013-02-25 10:57:00,
2013-02-25 04:58:00,34.8,32.4,29.88,NE,48,19.8,20.4,91,0.00,,,0.00,VWS V13.01,2013-02-25 10:58:00,
2013-02-25 04:59:00,26.6,26.0,30.15,ENE,63,7.0,7.6,98,0.00,,,0.00,VWS V13.01,2013-02-25 10:59:00,
2013-02-25 05:00:00,35.1,32.8,29.88,ENE,65,16.7,17.7,91,0.00,,,0.00,VWS V13.01,2013-02-25 11:00:00,
2013-02-25 05:01:00,35.1,32.8,29.88,NE,44,14.8,15.8,91,0.00,,,0.00,VWS V13.01,2013-02-25 11:01:00,
2013-02-25 05:02:00,35.1,32.8,29.88,ENE,60,18.6,18.6,91,0.00,,,0.00,VWS V13.01,2013-02-25 11:02:00,
2013-02-25 05:03:00,34.8,32.5,29.88,ENE,73,14.5,17.0,91,0.00,,,0.00,VWS V13.01,2013-02-25 11:03:00,
2013-02-25 05:04:00,26.9,26.4,30.14,ENE,70,7.3,8.5,98,0.00,,,0.00,VWS V13.01,2013-02-25 11:04:00,
2013-02-25 05:05:00,34.8,32.5,29.88,ENE,59,13.6,18.5,91,0.00,,,0.00,VWS V13.01,2013-02-25 11:05:00,
2013-02-25 05:06:00,35.0,32.8,29.88,NE,55,15.8,18.0,92,0.00,,,0.00,VWS V13.01,2013-02-25 11:06:00,
2013-02-25 05:07:00,35.0,32.8,29.88,ENE,68,19.9,19.9,92,0.00,,,0.00,VWS V13.01,2013-02-25 11:07:00,
2013-02-25 05:08:00,34.8,32.6,29.88,ENE,75,16.9,23.2,92,0.00,,,0.00,VWS V13.01,2013-02-25 11:08:00,
2013-02-25 05:09:00,27.0,26.4,30.14,ENE,72,6.8,8.8,98,0.00,,,0.00,VWS V13.01,2013-02-25 11:09:00,
2013-02-25 05:10:00,34.7,32.5,29.88,NE,56,14.8,23.2,91,0.00,,,0.00,VWS V13.01,2013-02-25 11:10:00,
2013-02-25 05:11:00,34.8,32.5,29.88,ENE,65,20.6,20.6,91,0.00,,,0.00,VWS V13.01,2013-02-25 11:11:00,
2013-02-25 05:12:00,34.9,32.7,29.88,NE,45,17.3,19.1,92,0.00,,,0.00,VWS V13.01,2013-02-25 11:12:00,
2013-02-25 05:13:00,34.8,32.5,29.88,NE,55,19.3,20.5,91,0.00,,,0.00,VWS V13.01,2013-02-25 11:13:00,
2013-02-25 05:14:00,27.3,26.7,30.14,ENE,66,7.7,8.8,98,0.00,,,0.00,VWS V13.01,2013-02-25 11:14:00,
2013-02-25 05:15:00,34.9,32.7,29.88,ENE,73,15.5,21.9,91,0.00,,,0.00,VWS V13.01,2013-02-25 11:15:00,
2013-02-25 05:16:00,35.0,32.9,29.88,ENE,69,18.8,18.8,92,0.00,,,0.00,VWS V13.01,2013-02-25 11:16:00,
2013-02-25 05:17:00,34.8,32.6,29.87,NE,52,21.2,28.0,92,0.00,,,0.00,VWS V13.01,2013-02-25 11:17:00,
2013-02-25 05:18:00,35.0,32.6,29.87,ENE,73,21.8,22.6,91,0.00,,,0.00,VWS V13.01,2013-02-25 11:18:00,
2013-02-25 05:19:00,27.5,26.8,30.14,ENE,73,6.9,8.4,97,0.00,,,0.00,VWS V13.01,2013-02-25 11:19:00,
2013-02-25 05:20:00,34.8,32.5,29.87,NNE,22,18.3,22.2,91,0.00,,,0.00,VWS V13.01,2013-02-25 11:20:00,
2013-02-25 05:21:00,34.7,32.4,29.87,NE,42,16.7,23.6,91,0.00,,,0.00,VWS V13.01,2013-02-25 11:21:00,
2013-02-25 05:22:00,34.7,32.5,29.87,ENE,72,13.6,20.6,91,0.00,,,0.00,VWS V13.01,2013-02-25 11:22:00,
2013-02-25 05:23:00,34.8,32.4,29.87,NE,53,18.6,23.7,91,0.00,,,0.00,VWS V13.01,2013-02-25 11:23:00,
2013-02-25 05:24:00,27.5,26.7,30.14,ENE,76,6.4,8.0,97,0.00,,,0.00,VWS V13.01,2013-02-25 11:24:00,
2013-02-25 05:25:00,35.0,32.6,29.86,NNE,28,17.5,26.6,91,0.00,,,0.00,VWS V13.01,2013-02-25 11:25:00,
2013-02-25 05:26:00,34.9,32.5,29.86,NE,49,20.9,22.7,91,0.00,,,0.00,VWS V13.01,2013-02-25 11:26:00,
2013-02-25 05:27:00,34.8,32.5,29.86,NNE,21,23.4,23.4,91,0.00,,,0.00,VWS V13.01,2013-02-25 11:27:00,
2013-02-25 05:28:00,35.0,32.6,29.86,ENE,60,19.0,22.2,91,0.00,,,0.00,VWS V13.01,2013-02-25 11:28:00,
2013-02-25 05:29:00,27.8,27.0,30.15,ENE,65,7.0,8.7,97,0.00,,,0.00,VWS V13.01,2013-02-25 11:29:00,
2013-02-25 05:30:00,35.0,32.8,29.86,NE,44,17.6,23.4,91,0.00,,,0.00,VWS V13.01,2013-02-25 11:30:00,
2013-02-25 05:31:00,34.7,32.5,29.86,NNE,32,17.1,19.9,92,0.00,,,0.00,VWS V13.01,2013-02-25 11:31:00,
2013-02-25 05:32:00,34.6,32.4,29.86,ENE,66,17.1,19.7,92,0.00,,,0.00,VWS V13.01,2013-02-25 11:32:00,
2013-02-25 05:33:00,35.0,32.8,29.86,ENE,59,16.8,20.5,92,0.00,,,0.00,VWS V13.01,2013-02-25 11:33:00,
2013-02-25 05:34:00,27.7,26.9,30.14,ENE,59,7.5,7.7,97,0.00,,,0.00,VWS V13.01,2013-02-25 11:34:00,
2013-02-25 05:35:00,34.9,32.6,29.87,ENE,65,15.5,23.9,91,0.00,,,0.00,VWS V13.01,2013-02-25 11:35:00,
2013-02-25 05:36:00,34.7,32.4,29.87,NE,51,19.6,25.5,91,0.00,,,0.00,VWS V13.01,2013-02-25 11:36:00,
2013-02-25 05:37:00,34.8,32.6,29.87,ENE,59,21.4,22.3,92,0.00,,,0.00,VWS V13.01,2013-02-25 11:37:00,
2013-02-25 05:38:00,34.8,32.5,29.87,ENE,72,22.1,25.2,91,0.00,,,0.00,VWS V13.01,2013-02-25 11:38:00,
2013-02-25 05:39:00,27.1,26.2,30.14,NE,51,7.1,7.5,96,0.00,,,0.00,VWS V13.01,2013-02-25 11:39:00,
2013-02-25 05:40:00,34.7,32.4,29.86,NE,55,19.6,20.9,91,0.00,,,0.00,VWS V13.01,2013-02-25 11:40:00,
2013-02-25 05:41:00,34.9,32.5,29.86,ENE,65,21.9,27.1,91,0.00,,,0.00,VWS V13.01,2013-02-25 11:41:00,
2013-02-25 05:42:00,34.8,32.5,29.86,ESE,110,12.1,25.4,91,0.00,,,0.00,VWS V13.01,2013-02-25 11:42:00,
2013-02-25 05:43:00,34.7,32.5,29.86,ESE,103,13.4,23.4,92,0.00,,,0.00,VWS V13.01,2013-02-25 11:43:00,
2013-02-25 05:44:00,27.2,26.4,30.14,ENE,66,7.1,8.1,97,0.00,,,0.00,VWS V13.01,2013-02-25 11:44:00,
2013-02-25 05:45:00,34.7,32.5,29.85,NE,55,23.2,25.8,92,0.00,,,0.00,VWS V13.01,2013-02-25 11:45:00,
2013-02-25 05:46:00,34.9,32.7,29.85,NE,52,17.3,21.8,92,0.00,,,0.00,VWS V13.01,2013-02-25 11:46:00,
2013-02-25 05:49:00,27.3,26.6,30.14,ENE,59,6.2,7.9,97,0.00,,,0.00,VWS V13.01,2013-02-25 11:49:00,
2013-02-25 05:54:00,27.2,26.4,30.14,ENE,70,6.0,6.5,97,0.00,,,0.00,VWS V13.01,2013-02-25 11:54:00,
2013-02-25 05:59:00,27.4,26.6,30.14,NE,44,5.2,6.3,97,0.00,,,0.00,VWS V13.01,2013-02-25 11:59:00,
2013-02-25 06:04:00,27.1,26.3,30.14,NE,56,5.2,5.2,97,0.00,,,0.00,VWS V13.01,2013-02-25 12:04:00,
2013-02-25 06:09:00,27.1,26.4,30.13,ENE,69,6.0,6.8,97,0.00,,,0.00,VWS V13.01,2013-02-25 12:09:00,
2013-02-25 06:14:00,26.8,26.1,30.13,NE,56,5.8,6.5,97,0.00,,,0.00,VWS V13.01,2013-02-25 12:14:00,
2013-02-25 06:19:00,26.7,26.0,30.13,ENE,59,5.1,5.7,97,0.00,,,0.00,VWS V13.01,2013-02-25 12:19:00,
2013-02-25 06:24:00,26.8,26.1,30.13,ENE,68,5.5,6.2,97,0.00,,,0.00,VWS V13.01,2013-02-25 12:24:00,
2013-02-25 06:29:00,26.6,26.0,30.13,ENE,73,5.2,5.8,97,0.00,,,0.00,VWS V13.01,2013-02-25 12:29:00,
2013-02-25 06:34:00,26.4,25.8,30.13,NE,53,6.0,6.3,98,0.00,,,0.00,VWS V13.01,2013-02-25 12:34:00,
2013-02-25 06:39:00,26.2,25.6,30.13,NE,49,4.8,6.1,98,0.00,,,0.00,VWS V13.01,2013-02-25 12:39:00,
2013-02-25 06:44:00,26.2,25.7,30.13,NE,46,5.2,5.8,98,0.00,,,0.00,VWS V13.01,2013-02-25 12:44:00,
2013-02-25 06:49:00,26.3,25.8,30.13,ENE,68,6.2,7.5,98,0.00,,,0.00,VWS V13.01,2013-02-25 12:49:00,
2013-02-25 06:54:00,26.5,26.1,30.12,ENE,68,7.6,7.9,98,0.00,,,0.00,VWS V13.01,2013-02-25 12:54:00,
2013-02-25 06:59:00,26.7,26.2,30.12,ENE,66,7.6,8.3,98,0.00,,,0.00,VWS V13.01,2013-02-25 12:59:00,
2013-02-25 07:04:00,27.1,26.5,30.12,ENE,65,8.9,8.9,98,0.00,,,0.00,VWS V13.01,2013-02-25 13:04:00,
2013-02-25 07:09:00,27.0,26.4,30.12,ENE,77,5.2,6.5,97,0.00,,,0.00,VWS V13.01,2013-02-25 13:09:00,
2013-02-25 07:14:00,27.5,26.9,30.12,ENE,66,5.7,6.1,97,0.00,,,0.00,VWS V13.01,2013-02-25 13:14:00,
2013-02-25 07:19:00,27.7,27.0,30.13,ENE,72,2.9,4.7,97,0.00,,,0.00,VWS V13.01,2013-02-25 13:19:00,
2013-02-25 07:24:00,27.9,27.2,30.12,ESE,112,5.3,5.5,97,0.00,,,0.00,VWS V13.01,2013-02-25 13:24:00,
2013-02-25 07:29:00,27.8,27.1,30.12,East,97,2.0,6.2,97,0.00,,,0.00,VWS V13.01,2013-02-25 13:29:00,
2013-02-25 07:34:00,28.4,27.7,30.12,East,87,4.8,6.0,97,0.00,,,0.00,VWS V13.01,2013-02-25 13:34:00,
2013-02-25 07:39:00,28.8,28.1,30.13,ENE,76,2.0,4.8,97,0.00,,,0.00,VWS V13.01,2013-02-25 13:39:00,
2013-02-25 07:44:00,29.0,28.3,30.13,East,100,0.0,0.0,97,0.00,,,0.00,VWS V13.01,2013-02-25 13:44:00,
2013-02-25 07:49:00,29.6,28.9,30.13,East,100,0.0,0.0,97,0.00,,,0.00,VWS V13.01,2013-02-25 13:49:00,
2013-02-25 07:54:00,29.9,29.1,30.13,East,79,0.0,6.2,97,0.00,,,0.00,VWS V13.01,2013-02-25 13:54:00,
2013-02-25 07:59:00,30.7,29.9,30.13,ENE,70,5.7,5.7,97,0.00,,,0.00,VWS V13.01,2013-02-25 13:59:00,
2013-02-25 08:05:00,30.8,29.9,30.13,ENE,76,6.5,6.6,96,0.00,,,0.00,VWS V13.01,2013-02-25 14:05:00,
2013-02-25 08:10:00,31.1,30.0,30.13,ENE,65,8.5,8.5,96,0.00,,,0.00,VWS V13.01,2013-02-25 14:10:00,
2013-02-25 08:16:00,31.6,30.4,30.13,ESE,108,6.2,8.8,95,0.00,,,0.00,VWS V13.01,2013-02-25 14:16:00,
2013-02-25 08:21:00,32.0,30.9,30.13,East,89,6.8,8.3,96,0.00,,,0.00,VWS V13.01,2013-02-25 14:21:00,
2013-02-25 08:26:00,32.0,30.7,30.13,East,84,6.0,8.1,95,0.00,,,0.00,VWS V13.01,2013-02-25 14:26:00,
2013-02-25 08:31:00,32.5,31.1,30.13,East,100,8.4,8.4,94,0.00,,,0.00,VWS V13.01,2013-02-25 14:31:00,
2013-02-25 08:36:00,32.7,31.2,30.13,East,87,6.4,7.6,94,0.00,,,0.00,VWS V13.01,2013-02-25 14:36:00,
2013-02-25 08:41:00,33.0,31.1,30.13,ESE,115,6.6,8.0,93,0.00,,,0.00,VWS V13.01,2013-02-25 14:41:00,
2013-02-25 08:46:00,33.2,30.6,30.13,ENE,77,6.8,7.9,90,0.00,,,0.00,VWS V13.01,2013-02-25 14:46:00,
2013-02-25 08:51:00,33.5,30.7,30.13,East,93,7.3,10.9,89,0.00,,,0.00,VWS V13.01,2013-02-25 14:51:00,
2013-02-25 08:56:00,33.7,30.3,30.13,SSE,156,5.0,9.3,87,0.00,,,0.00,VWS V13.01,2013-02-25 14:56:00,
2013-02-25 09:01:00,33.8,30.4,30.12,East,94,7.2,10.2,87,0.00,,,0.00,VWS V13.01,2013-02-25 15:01:00,
2013-02-25 09:06:00,33.9,30.5,30.12,East,101,8.7,10.7,87,0.00,,,0.00,VWS V13.01,2013-02-25 15:06:00,
2013-02-25 09:11:00,34.2,31.0,30.12,NE,34,8.3,9.4,88,0.00,,,0.00,VWS V13.01,2013-02-25 15:11:00,
2013-02-25 09:16:00,34.4,30.9,30.12,East,91,8.1,9.9,87,0.00,,,0.00,VWS V13.01,2013-02-25 15:16:00,
2013-02-25 09:21:00,34.7,31.3,30.12,ESE,107,8.6,8.6,87,0.00,,,0.00,VWS V13.01,2013-02-25 15:21:00,
2013-02-25 09:26:00,34.9,31.1,30.11,ENE,66,10.5,10.5,86,0.00,,,0.00,VWS V13.01,2013-02-25 15:26:00,
2013-02-25 09:31:00,35.3,31.7,30.11,East,82,6.6,7.1,87,0.00,,,0.00,VWS V13.01,2013-02-25 15:31:00,
2013-02-25 09:36:00,35.6,32.2,30.11,ENE,75,6.3,8.8,87,0.00,,,0.00,VWS V13.01,2013-02-25 15:36:00,
2013-02-25 09:41:00,35.8,31.9,30.11,ESE,117,7.4,8.9,86,0.00,,,0.00,VWS V13.01,2013-02-25 15:41:00,
2013-02-25 09:46:00,36.0,31.7,30.11,East,89,7.4,7.9,84,0.00,,,0.00,VWS V13.01,2013-02-25 15:46:00,
2013-02-25 09:51:00,36.1,30.8,30.11,ENE,70,10.7,11.5,81,0.00,,,0.00,VWS V13.01,2013-02-25 15:51:00,
2013-02-25 09:55:00,36.2,31.0,30.11,East,89,6.5,10.6,81,0.00,,,0.00,VWS V13.01,2013-02-25 15:55:00,
2013-02-25 10:00:00,36.7,31.8,30.11,ENE,76,7.8,7.8,82,0.00,,,0.00,VWS V13.01,2013-02-25 16:00:00,
2013-02-25 10:05:00,37.0,31.3,30.11,East,83,8.9,11.9,80,0.00,,,0.00,VWS V13.01,2013-02-25 16:05:00,
2013-02-25 10:10:00,37.0,30.9,30.12,ESE,111,6.0,9.9,78,0.00,,,0.00,VWS V13.01,2013-02-25 16:10:00,
2013-02-25 10:15:00,36.9,30.0,30.12,SE,128,5.5,9.4,76,0.00,,,0.00,VWS V13.01,2013-02-25 16:15:00,
2013-02-25 10:20:00,37.6,31.5,30.13,SE,124,4.8,7.6,78,0.00,,,0.00,VWS V13.01,2013-02-25 16:20:00,
2013-02-25 10:25:00,37.7,30.5,30.13,ESE,114,6.7,8.9,75,0.00,,,0.00,VWS V13.01,2013-02-25 16:25:00,
2013-02-25 10:30:00,37.9,30.8,30.13,East,80,10.3,10.8,75,0.00,,,0.00,VWS V13.01,2013-02-25 16:30:00,
2013-02-25 10:35:00,37.9,31.3,30.13,East,96,6.5,8.6,77,0.00,,,0.00,VWS V13.01,2013-02-25 16:35:00,
2013-02-25 10:40:00,38.0,30.2,30.13,East,93,12.7,14.0,73,0.00,,,0.00,VWS V13.01,2013-02-25 16:40:00,
2013-02-25 10:45:00,37.6,30.3,30.13,ESE,107,5.7,10.6,75,0.00,,,0.00,VWS V13.01,2013-02-25 16:45:00,
2013-02-25 10:50:00,37.9,31.3,30.13,ENE,63,8.1,9.4,77,0.00,,,0.00,VWS V13.01,2013-02-25 16:50:00,
2013-02-25 10:55:00,38.1,30.4,30.13,East,84,5.5,10.3,73,0.00,,,0.00,VWS V13.01,2013-02-25 16:55:00,
2013-02-25 11:00:00,38.0,29.9,30.13,ENE,76,13.2,13.2,72,0.00,,,0.00,VWS V13.01,2013-02-25 17:00:00,
2013-02-25 11:05:00,38.0,29.5,30.13,ESE,105,9.1,12.4,71,0.00,,,0.00,VWS V13.01,2013-02-25 17:05:00,
2013-02-25 11:10:00,38.1,30.0,30.13,East,97,7.3,11.7,72,0.00,,,0.00,VWS V13.01,2013-02-25 17:10:00,
2013-02-25 11:15:00,38.4,31.1,30.13,SE,129,5.8,9.5,75,0.00,,,0.00,VWS V13.01,2013-02-25 17:15:00,
2013-02-25 11:20:00,38.6,29.4,30.13,East,96,8.5,11.7,69,0.00,,,0.00,VWS V13.01,2013-02-25 17:20:00,
2013-02-25 11:25:00,38.7,30.5,30.13,East,97,6.8,10.2,72,0.00,,,0.00,VWS V13.01,2013-02-25 17:25:00,
2013-02-25 11:30:00,38.7,30.6,30.13,East,89,7.3,8.9,72,0.00,,,0.00,VWS V13.01,2013-02-25 17:30:00,
2013-02-25 11:35:00,39.4,30.7,30.12,East,93,8.0,12.0,71,0.00,,,0.00,VWS V13.01,2013-02-25 17:35:00,
2013-02-25 11:40:00,39.7,31.3,30.12,ENE,63,7.0,11.6,72,0.00,,,0.00,VWS V13.01,2013-02-25 17:40:00,
2013-02-25 11:45:00,39.5,31.4,30.12,South,180,6.0,9.2,72,0.00,,,0.00,VWS V13.01,2013-02-25 17:45:00,
2013-02-25 11:50:00,39.9,32.1,30.12,SE,134,8.6,9.6,73,0.00,,,0.00,VWS V13.01,2013-02-25 17:50:00,
2013-02-25 11:55:00,39.9,32.1,30.12,East,82,6.2,7.9,73,0.00,,,0.00,VWS V13.01,2013-02-25 17:55:00,
2013-02-25 12:00:00,40.3,31.3,30.11,SSE,148,7.6,7.6,70,0.00,,,0.00,VWS V13.01,2013-02-25 18:00:00,
2013-02-25 12:05:00,40.1,31.3,30.11,SE,139,7.8,9.6,70,0.00,,,0.00,VWS V13.01,2013-02-25 18:05:00,
2013-02-25 12:10:00,40.5,32.1,30.11,SE,145,7.1,9.8,72,0.00,,,0.00,VWS V13.01,2013-02-25 18:10:00,
2013-02-25 12:15:00,40.5,32.4,30.10,East,96,7.1,7.2,73,0.00,,,0.00,VWS V13.01,2013-02-25 18:15:00,
2013-02-25 12:20:00,40.7,32.5,30.10,East,80,7.1,7.8,72,0.00,,,0.00,VWS V13.01,2013-02-25 18:20:00,
2013-02-25 12:25:00,40.8,32.8,30.09,SE,129,2.0,6.0,73,0.00,,,0.00,VWS V13.01,2013-02-25 18:25:00,
2013-02-25 12:30:00,40.7,32.6,30.09,ESE,107,4.9,8.8,72,0.00,,,0.00,VWS V13.01,2013-02-25 18:30:00,
2013-02-25 12:35:00,40.9,33.2,30.08,East,91,10.0,12.2,74,0.00,,,0.00,VWS V13.01,2013-02-25 18:35:00,
2013-02-25 12:40:00,41.0,33.2,30.08,East,87,7.6,9.3,74,0.00,,,0.00,VWS V13.01,2013-02-25 18:40:00,
2013-02-25 12:45:00,41.3,34.0,30.08,ENE,60,6.8,8.5,75,0.00,,,0.00,VWS V13.01,2013-02-25 18:45:00,
2013-02-25 12:50:00,40.9,32.9,30.08,East,87,7.5,10.7,73,0.00,,,0.00,VWS V13.01,2013-02-25 18:50:00,
2013-02-25 12:55:00,41.3,34.0,30.09,East,100,0.0,3.0,75,0.00,,,0.00,VWS V13.01,2013-02-25 18:55:00,
2013-02-25 13:00:00,41.2,33.5,30.08,East,90,5.5,7.8,74,0.00,,,0.00,VWS V13.01,2013-02-25 19:00:00,
2013-02-25 13:05:00,41.9,33.5,30.08,NE,48,4.9,7.5,72,0.00,,,0.00,VWS V13.01,2013-02-25 19:05:00,
2013-02-25 13:10:00,41.8,32.3,30.08,East,84,10.8,13.6,69,0.00,,,0.00,VWS V13.01,2013-02-25 19:10:00,
2013-02-25 13:15:00,42.2,32.9,30.08,ENE,77,7.5,9.4,69,0.00,,,0.00,VWS V13.01,2013-02-25 19:15:00,
2013-02-25 13:20:00,42.2,31.8,30.08,ENE,73,6.5,7.5,66,0.00,,,0.00,VWS V13.01,2013-02-25 19:20:00,
2013-02-25 13:25:00,42.1,33.0,30.08,ENE,63,8.8,10.3,70,0.00,,,0.00,VWS V13.01,2013-02-25 19:25:00,
2013-02-25 13:30:00,41.9,32.4,30.08,ENE,72,5.2,5.7,69,0.00,,,0.00,VWS V13.01,2013-02-25 19:30:00,
2013-02-25 13:35:00,42.0,31.9,30.08,ENE,66,9.7,9.7,67,0.00,,,0.00,VWS V13.01,2013-02-25 19:35:00,
2013-02-25 13:40:00,42.3,32.7,30.08,East,82,5.5,6.4,69,0.00,,,0.00,VWS V13.01,2013-02-25 19:40:00,
2013-02-25 13:45:00,42.2,33.2,30.07,East,82,4.4,7.5,70,0.00,,,0.00,VWS V13.01,2013-02-25 19:45:00,
2013-02-25 13:50:00,42.6,32.3,30.07,East,79,7.5,11.2,67,0.00,,,0.00,VWS V13.01,2013-02-25 19:50:00,
2013-02-25 13:55:00,42.4,32.7,30.06,East,97,6.1,9.6,68,0.00,,,0.00,VWS V13.01,2013-02-25 19:55:00,
2013-02-25 14:00:00,42.4,32.0,30.06,East,101,6.8,9.6,66,0.00,,,0.00,VWS V13.01,2013-02-25 20:00:00,
2013-02-25 14:05:00,42.7,32.6,30.06,ENE,66,8.8,9.9,67,0.00,,,0.00,VWS V13.01,2013-02-25 20:05:00,
2013-02-25 14:10:00,42.6,33.6,30.06,ENE,69,13.3,13.3,70,0.00,,,0.00,VWS V13.01,2013-02-25 20:10:00,
2013-02-25 14:15:00,42.6,32.1,30.06,NE,56,8.0,12.4,66,0.00,,,0.00,VWS V13.01,2013-02-25 20:15:00,
2013-02-25 14:20:00,42.7,33.0,30.06,East,89,9.8,10.4,68,0.00,,,0.00,VWS V13.01,2013-02-25 20:20:00,
2013-02-25 14:25:00,42.5,33.1,30.06,ENE,63,8.8,10.1,69,0.00,,,0.00,VWS V13.01,2013-02-25 20:25:00,
2013-02-25 14:30:00,42.6,33.8,30.05,ENE,72,9.3,9.3,71,0.00,,,0.00,VWS V13.01,2013-02-25 20:30:00,
2013-02-25 14:35:00,42.4,32.6,30.05,ENE,76,7.8,9.9,68,0.00,,,0.00,VWS V13.01,2013-02-25 20:35:00,
2013-02-25 14:40:00,42.6,34.4,30.04,ENE,68,6.2,8.2,72,0.00,,,0.00,VWS V13.01,2013-02-25 20:40:00,
2013-02-25 14:45:00,42.8,33.9,30.04,ENE,73,9.2,11.4,71,0.00,,,0.00,VWS V13.01,2013-02-25 20:45:00,
2013-02-25 14:50:00,42.5,33.5,30.03,ENE,63,14.3,14.3,70,0.00,,,0.00,VWS V13.01,2013-02-25 20:50:00,
2013-02-25 14:55:00,42.1,33.1,30.02,East,79,13.7,13.7,70,0.00,,,0.00,VWS V13.01,2013-02-25 20:55:00,
2013-02-25 15:00:00,42.3,34.4,30.02,ENE,60,9.7,10.5,73,0.00,,,0.00,VWS V13.01,2013-02-25 21:00:00,
2013-02-25 15:05:00,42.3,33.4,30.02,ENE,75,12.7,15.2,71,0.00,,,0.00,VWS V13.01,2013-02-25 21:05:00,
2013-02-25 15:10:00,42.3,33.8,30.02,ENE,72,10.2,11.0,72,0.00,,,0.00,VWS V13.01,2013-02-25 21:10:00,
2013-02-25 15:15:00,42.3,34.0,30.02,ENE,68,15.2,16.2,72,0.00,,,0.00,VWS V13.01,2013-02-25 21:15:00,
2013-02-25 15:20:00,42.2,33.1,30.01,ENE,73,8.6,12.7,70,0.00,,,0.00,VWS V13.01,2013-02-25 21:20:00,
2013-02-25 15:25:00,42.2,33.0,30.01,ENE,77,10.2,12.8,70,0.00,,,0.00,VWS V13.01,2013-02-25 21:25:00,
2013-02-25 15:30:00,41.9,32.8,30.01,ENE,77,10.2,14.3,70,0.00,,,0.00,VWS V13.01,2013-02-25 21:30:00,
2013-02-25 15:35:00,41.9,33.3,30.00,ENE,73,11.7,16.7,71,0.00,,,0.00,VWS V13.01,2013-02-25 21:35:00,
2013-02-25 15:40:00,41.6,32.7,30.01,ENE,59,12.1,14.5,70,0.00,,,0.00,VWS V13.01,2013-02-25 21:40:00,
2013-02-25 15:45:00,41.9,33.8,30.00,NE,48,14.6,18.5,73,0.00,,,0.00,VWS V13.01,2013-02-25 21:45:00,
2013-02-25 15:50:00,42.1,35.8,30.00,ENE,72,13.6,18.4,78,0.00,,,0.00,VWS V13.01,2013-02-25 21:50:00,
2013-02-25 15:55:00,41.7,35.7,30.00,ENE,62,15.4,16.1,79,0.00,,,0.00,VWS V13.01,2013-02-25 21:55:00,
2013-02-25 16:00:00,41.3,35.4,30.00,ENE,68,10.3,14.9,79,0.00,,,0.00,VWS V13.01,2013-02-25 22:00:00,
2013-02-25 16:05:00,40.9,34.9,30.00,ENE,68,16.8,17.9,79,0.00,,,0.00,VWS V13.01,2013-02-25 22:05:00,
2013-02-25 16:10:00,40.8,34.4,30.00,ENE,75,15.0,17.3,78,0.00,,,0.00,VWS V13.01,2013-02-25 22:10:00,
2013-02-25 16:15:00,40.6,34.2,29.99,ENE,72,13.9,14.7,78,0.00,,,0.00,VWS V13.01,2013-02-25 22:15:00,
2013-02-25 16:20:00,40.6,34.8,30.00,ENE,70,14.5,15.8,80,0.00,,,0.00,VWS V13.01,2013-02-25 22:20:00,
2013-02-25 16:25:00,40.3,35.3,30.00,ENE,59,12.5,15.5,82,0.00,,,0.00,VWS V13.01,2013-02-25 22:25:00,
2013-02-25 16:30:00,40.3,35.8,30.00,ENE,73,13.3,14.7,84,0.00,,,0.00,VWS V13.01,2013-02-25 22:30:00,
2013-02-25 16:35:00,40.2,36.3,29.99,NNE,30,11.3,13.1,86,0.00,,,0.00,VWS V13.01,2013-02-25 22:35:00,
2013-02-25 16:40:00,40.3,35.8,29.99,NE,42,11.2,13.9,84,0.00,,,0.00,VWS V13.01,2013-02-25 22:40:00,
2013-02-25 16:45:00,40.1,35.3,29.99,ENE,73,17.1,20.1,83,0.00,,,0.00,VWS V13.01,2013-02-25 22:45:00,
2013-02-25 16:50:00,39.9,35.3,29.99,NE,39,9.2,17.1,83,0.00,,,0.00,VWS V13.01,2013-02-25 22:50:00,
2013-02-25 16:55:00,39.6,34.9,29.99,NE,52,11.1,12.3,83,0.00,,,0.00,VWS V13.01,2013-02-25 22:55:00,
2013-02-25 17:00:00,39.4,34.6,29.98,ENE,70,14.0,16.0,83,0.00,,,0.00,VWS V13.01,2013-02-25 23:00:00,
2013-02-25 17:05:00,39.4,34.6,29.99,East,91,13.9,14.8,83,0.00,,,0.00,VWS V13.01,2013-02-25 23:05:00,
2013-02-25 17:10:00,39.3,34.5,29.99,ENE,73,15.6,17.9,83,0.00,,,0.00,VWS V13.01,2013-02-25 23:10:00,
2013-02-25 17:15:00,39.3,34.5,29.98,ENE,75,13.7,13.9,83,0.00,,,0.00,VWS V13.01,2013-02-25 23:15:00,
2013-02-25 17:20:00,39.0,34.7,29.98,NE,52,11.7,15.3,84,0.00,,,0.00,VWS V13.01,2013-02-25 23:20:00,
2013-02-25 17:25:00,39.0,35.2,29.97,ENE,68,11.8,14.5,86,0.00,,,0.00,VWS V13.01,2013-02-25 23:25:00,
2013-02-25 17:30:00,38.6,34.9,29.97,ENE,69,11.7,15.0,86,0.00,,,0.00,VWS V13.01,2013-02-25 23:30:00,
2013-02-25 17:35:00,38.4,34.7,29.97,NE,49,17.9,17.9,86,0.00,,,0.00,VWS V13.01,2013-02-25 23:35:00,
2013-02-25 17:40:00,38.6,35.0,29.96,ENE,59,15.7,19.9,87,0.00,,,0.00,VWS V13.01,2013-02-25 23:40:00,
2013-02-25 17:45:00,38.1,34.7,29.97,NE,41,15.4,19.4,87,0.00,,,0.00,VWS V13.01,2013-02-25 23:45:00,
2013-02-25 17:50:00,38.0,34.8,29.97,NE,49,15.8,17.9,88,0.00,,,0.00,VWS V13.01,2013-02-25 23:50:00,
2013-02-25 17:55:00,37.6,34.4,29.97,NE,49,17.6,20.3,88,0.00,,,0.00,VWS V13.01,2013-02-25 23:55:00,
2013-02-25 18:00:00,37.7,34.6,29.97,NE,46,16.1,16.5,88,0.00,,,0.00,VWS V13.01,2013-02-26 00:00:00,
2013-02-25 18:05:00,37.3,34.6,29.96,NE,56,13.4,15.9,90,0.00,,,0.00,VWS V13.01,2013-02-26 00:05:00,
2013-02-25 18:10:00,37.0,34.6,29.96,ENE,59,16.8,18.3,91,0.00,,,0.00,VWS V13.01,2013-02-26 00:10:00,